This demonstration page uses our WeatherBlox Daily Observations layout. Learn more.

Left ArrowRight Arrow

41.86663, -103.66717

Hourly Observations for June 21, 2016

Temp ( °F °C ) Dew Point ( °F °C ) Humidity (%) Winds ( mph kmh ) Pressure ( in mb ) Visibility ( mi km ) Precip ( " mm )
12:53 am 00:53 Clear 64 17.8 54 12.2 70 70 E 6 9 30.07 1018 10 16 0.00 0.00
1:53 am 01:53 Clear 63 17.2 53 11.7 70 70 E 5 7 30.05 1018 10 16 0.00 0.00
2:53 am 02:53 Clear 61 16.1 53 11.7 75 75 E 7 11 30.03 1017 10 16 0.00 0.00
3:53 am 03:53 Clear 60 15.6 53 11.7 78 78 ESE 7 11 30.01 1016 10 16 0.00 0.00
4:53 am 04:53 Clear 59 15 53 11.7 81 81 ESE 8 13 30.00 1016 10 16 0.00 0.00
5:53 am 05:53 Sunny 60 15.6 54 12.2 80 80 ESE 7 11 29.98 1015 10 16 0.00 0.00
6:53 am 06:53 Sunny 64 17.8 56 13.3 75 75 ESE 7 11 29.97 1015 10 16 0.00 0.00
7:53 am 07:53 Sunny 69 20.6 59 15 70 70 SE 9 15 29.93 1014 10 16 0.00 0.00
8:53 am 08:53 Sunny 76 24.4 62 16.7 62 62 SSE 8 13 29.92 1013 10 16 0.00 0.00
9:53 am 09:53 Sunny 80 26.7 63 17.2 56 56 VRB 3 6 29.89 1012 10 16 0.00 0.00
10:53 am 10:53 Sunny 85 29.4 62 16.7 46 46 E 3 6 29.87 1011 10 16 0.00 0.00
11:53 am 11:53 Sunny 90 32.2 60 15.6 37 37 S 7 11 29.84 1011 10 16 0.00 0.00
12:53 pm 12:53 Sunny 95 35 59 15 30 30 ESE 5 7 29.80 1009 10 16 0.00 0.00
1:53 pm 13:53 Sunny 97 36.1 53 11.7 23 23 VRB 6 9 29.77 1008 10 16 0.00 0.00
2:53 pm 14:53 Sunny 100 37.8 53 11.7 21 21 E 10 17 29.74 1007 10 16 0.00 0.00
3:53 pm 15:53 Sunny 101 38.3 52 11.1 19 19 SE 10 17 29.71 1006 10 16 0.00 0.00
4:53 pm 16:53 Sunny 102 38.9 48 8.9 16 16 SE 10 17 29.67 1005 10 16 0.00 0.00
5:53 pm 17:53 Sunny 100 37.8 50 10 18 18 SSE 12 19 29.65 1004 10 16 0.00 0.00
6:53 pm 18:53 Sunny 96 35.6 52 11.1 23 23 SSE 12 19 29.63 1003 10 16 0.00 0.00
7:53 pm 19:53 Sunny 90 32.2 53 11.7 28 28 SE 8 13 29.62 1003 10 16 0.00 0.00
8:53 pm 20:53 Clear 87 30.6 52 11.1 30 30 W 5 7 29.63 1003 10 16 0.00 0.00
9:53 pm 21:53 Clear 77 25 55 12.8 47 47 Calm 29.66 1005 10 16 0.00 0.00
10:53 pm 22:53 Clear 71 21.7 54 12.2 55 55 NW 7 11 29.68 1005 10 16 0.00 0.00
11:53 pm 23:53 Clear 69 20.6 49 9.4 49 49 NW 7 11 29.68 1005 10 16 0.00 0.00

Powered by AerisWeather